Weather History for KHLN - September, 2013

Change the Weather History Date:

Wednesday, September 4, 2013

  Actual Average Record
Temperature  
Mean Temperature 75 °F 62 °F  
Max Temperature 88 °F 78 °F 96 °F (1998)
Min Temperature 61 °F 47 °F 31 °F (1962)
Degree Days  
Heating Degree Days 0 4  
Month to date heating degree days 0 16  
Since 1 July heating degree days 3 85  
Cooling Degree Days 10 2  
Month to date cooling degree days 30 8  
Year to date cooling degree days 539 391  
Growing Degree Days 24 (Base 50)    
Moisture  
Dew Point 53 °F    
Average Humidity 54    
Maximum Humidity 78    
Minimum Humidity 29    
Precipitation  
Precipitation 0.00 in 0.05 in 1.04 in (1881)
Month to date precipitation T 0.17  
Year to date precipitation 8.12 8.72  
Snow  
Snow 0.00 in 0.00 in 0.00 in (2000)
Month to date snowfall 0.0 0.1  
Since 1 July snowfall 0.0 0.4  
Since 1 September snowfall 0.0 0.1  
Snow Depth 0.00 in    
Sea Level Pressure  
Sea Level Pressure 30.08 in    
Wind  
Wind Speed 4 mph (ESE)    
Max Wind Speed 15 mph    
Max Gust Speed 18 mph    
Visibility 10 miles    
Events      
T = Trace of Precipitation, MM = Missing Value Source: NWS Daily Summary

Daily Weather History Graph

Daily Weather History Graph

Search for Another Location

Airport or City:

Trip Planner

Search our weather history database for the weather conditions in past years. The results will help you decide how hot, cold, wet, or windy it might be!

Date:

Astronomy

Sep. 04, 2013 Rise Set
Actual Time 6:52 AM MDT 8:00 PM MDT
Civil Twilight 6:21 AM MDT 8:31 PM MDT
Nautical Twilight 5:43 AM MDT 9:08 PM MDT
Astronomical Twilight 5:04 AM MDT 9:48 PM MDT
Moon 6:08 AM MDT (9/4) 7:19 PM MDT (9/4)
Length of Visible Light 14h 10m
Length of Day
13h 08m
Waning Crescent, 1% of the Moon is Illuminated
Sep 4
Waning Crescent
Sep 5
New
Sep 12
First Quarter
Sep 19
Full
Sep 26
Last Quarter

Hourly Weather History & Observations

Time (MDT) Temp. Heat Index Dew Point Humidity Pressure Visibility Wind Dir Wind Speed Gust Speed Precip Events Conditions
12:53 AM 68.0 °F - 55.9 °F 65% 30.10 in 10.0 mi Calm Calm - N/A   Mostly Cloudy
1:53 AM 68.0 °F - 57.0 °F 68% 30.09 in 10.0 mi Calm Calm - N/A   Scattered Clouds
2:53 AM 64.0 °F - 55.9 °F 75% 30.08 in 10.0 mi Calm Calm - N/A   Clear
3:53 AM 63.0 °F - 55.0 °F 75% 30.08 in 10.0 mi West 4.6 mph - N/A   Clear
4:53 AM 64.0 °F - 54.0 °F 70% 30.09 in 10.0 mi West 4.6 mph - N/A   Scattered Clouds
5:53 AM 63.0 °F - 54.0 °F 72% 30.10 in 10.0 mi Calm Calm - N/A   Scattered Clouds
6:53 AM 62.1 °F - 54.0 °F 75% 30.12 in 10.0 mi Calm Calm - N/A   Clear
7:53 AM 61.0 °F - 54.0 °F 78% 30.14 in 10.0 mi Calm Calm - N/A   Partly Cloudy
8:53 AM 64.9 °F - 54.0 °F 68% 30.15 in 10.0 mi NW 3.5 mph - N/A   Clear
9:53 AM 70.0 °F - 55.9 °F 61% 30.14 in 10.0 mi NE 4.6 mph - N/A   Clear
10:53 AM 73.9 °F - 55.9 °F 53% 30.13 in 10.0 mi Calm Calm - N/A   Clear
11:53 AM 78.1 °F - 55.9 °F 46% 30.11 in 10.0 mi East 6.9 mph - N/A   Clear
12:53 PM 82.9 °F 82.0 °F 55.0 °F 38% 30.08 in 10.0 mi East 8.1 mph - N/A   Clear
1:53 PM 84.9 °F 83.3 °F 54.0 °F 34% 30.06 in 10.0 mi ENE 6.9 mph - N/A   Clear
2:53 PM 84.0 °F 82.9 °F 55.0 °F 37% 30.06 in 10.0 mi ENE 8.1 mph - N/A   Clear
3:53 PM 84.9 °F 83.3 °F 54.0 °F 34% 30.05 in 10.0 mi East 12.7 mph - N/A   Clear
4:53 PM 88.0 °F - 52.0 °F 29% 30.03 in 10.0 mi ESE 9.2 mph - N/A   Clear
5:53 PM 84.9 °F - 52.0 °F 32% 30.03 in 10.0 mi SSE 8.1 mph - N/A   Scattered Clouds
6:53 PM 84.9 °F - 50.0 °F 30% 30.02 in 10.0 mi South 9.2 mph - N/A   Clear
7:53 PM 82.0 °F - 50.0 °F 33% 30.01 in 10.0 mi Calm Calm - N/A   Clear
8:53 PM 78.1 °F - 51.1 °F 39% 30.03 in 10.0 mi SW 5.8 mph - N/A   Clear
9:53 PM 73.0 °F - 50.0 °F 44% 30.04 in 10.0 mi Calm Calm - N/A   Clear
10:53 PM 70.0 °F - 50.0 °F 49% 30.05 in 10.0 mi Calm Calm - N/A   Scattered Clouds
11:53 PM 69.1 °F - 48.9 °F 49% 30.05 in 10.0 mi West 3.5 mph - N/A   Clear